• In Hungary
  • List of Countries
  • For 7 days
  • Water Temperature
  • Satellite Maps
  • Weather Map
  • News
  • Weather Widgets
  • user-avatar
    Login

    Hourly Weather Mosteczna

    Today, 15 October, Monday

    Time Temperature Precipitation Wind Pressure Humidity
    00:00 +10°C° 0 mm 2 mps 735 mmHg 62%
    01:00 +10°C° 0 mm 2 mps 735 mmHg 63%
    02:00 +10°C° 0 mm 2 mps 735 mmHg 63%
    03:00 +10°C° 0 mm 2 mps 735 mmHg 62%
    04:00 +9°C° 0 mm 2 mps 735 mmHg 62%
    05:00 +10°C° 0 mm 2 mps 735 mmHg 61%
    06:00 +10°C° 0 mm 2 mps 735 mmHg 60%
    07:00 +10°C° 0 mm 2 mps 735 mmHg 59%
    08:00 +13°C° 0 mm 2 mps 735 mmHg 52%
    09:00 +16°C° 0 mm 2 mps 735 mmHg 44%
    10:00 +19°C° 0 mm 3 mps 736 mmHg 37%
    11:00 +20°C° 0 mm 3 mps 735 mmHg 34%
    12:00 +21°C° 0 mm 3 mps 735 mmHg 32%
    13:00 +22°C° 0 mm 3 mps 735 mmHg 30%
    14:00 +20°C° 0 mm 3 mps 735 mmHg 34%
    15:00 +19°C° 0 mm 2 mps 735 mmHg 39%
    16:00 +18°C° 0 mm 2 mps 734 mmHg 43%
    17:00 +16°C° 0 mm 2 mps 734 mmHg 47%
    18:00 +14°C° 0 mm 2 mps 734 mmHg 50%
    19:00 +12°C° 0 mm 2 mps 734 mmHg 54%
    20:00 +12°C° 0 mm 2 mps 734 mmHg 54%
    21:00 +12°C° 0 mm 2 mps 734 mmHg 55%
    22:00 +10°C° 0 mm 2 mps 734 mmHg 55%
    23:00 +10°C° 0 mm 2 mps 734 mmHg 54%

    Tomorrow, 16 October, Tuesday

    Time Temperature Precipitation Wind Pressure Humidity
    00:00 +10°C° 0 mm 2 mps 734 mmHg 54%
    01:00 +10°C° 0 mm 2 mps 734 mmHg 53%
    02:00 +10°C° 0 mm 2 mps 734 mmHg 52%
    03:00 +9°C° 0 mm 2 mps 734 mmHg 51%
    04:00 +10°C° 0 mm 1 mps 734 mmHg 50%
    05:00 +10°C° 0 mm 1 mps 734 mmHg 51%
    06:00 +11°C° 0 mm 1 mps 734 mmHg 51%
    07:00 +11°C° 0 mm 1 mps 734 mmHg 51%
    08:00 +13°C° 0 mm 1 mps 735 mmHg 46%
    09:00 +16°C° 0 mm 1 mps 735 mmHg 40%
    10:00 +19°C° 0 mm 1 mps 735 mmHg 35%
    11:00 +19°C° 0 mm 2 mps 735 mmHg 33%
    12:00 +21°C° 0 mm 2 mps 735 mmHg 31%
    13:00 +23°C° 0 mm 2 mps 735 mmHg 30%
    14:00 +20°C° 0 mm 2 mps 735 mmHg 35%
    15:00 +19°C° 0 mm 2 mps 734 mmHg 39%
    16:00 +18°C° 0 mm 2 mps 734 mmHg 44%
    17:00 +16°C° 0 mm 2 mps 734 mmHg 47%
    18:00 +15°C° 0 mm 2 mps 734 mmHg 50%
    19:00 +13°C° 0 mm 2 mps 734 mmHg 53%
    20:00 +13°C° 0 mm 2 mps 734 mmHg 54%
    21:00 +12°C° 0 mm 2 mps 734 mmHg 55%
    22:00 +12°C° 0 mm 1 mps 734 mmHg 55%
    23:00 +12°C° 0 mm 1 mps 734 mmHg 56%

    Day after tomorrow, 17 October, Wednesday

    Time Temperature Precipitation Wind Pressure Humidity
    00:00 +12°C° 0 mm 1 mps 734 mmHg 57%
    01:00 +11°C° 0 mm 1 mps 734 mmHg 57%
    02:00 +11°C° 0 mm 1 mps 734 mmHg 58%
    03:00 +11°C° 0 mm 1 mps 734 mmHg 59%
    04:00 +11°C° 0 mm 1 mps 734 mmHg 59%
    05:00 +11°C° 0 mm 1 mps 734 mmHg 60%
    06:00 +11°C° 0 mm 1 mps 734 mmHg 60%
    07:00 +11°C° 0 mm 1 mps 734 mmHg 60%
    08:00 +14°C° 0 mm 1 mps 734 mmHg 53%
    09:00 +16°C° 0 mm 1 mps 734 mmHg 47%
    10:00 +20°C° 0 mm 1 mps 734 mmHg 40%
    11:00 +21°C° 0 mm 1 mps 734 mmHg 38%
    12:00 +22°C° 0 mm 1 mps 734 mmHg 36%
    13:00 +23°C° 0 mm 1 mps 734 mmHg 34%
    14:00 +22°C° 0 mm 1 mps 734 mmHg 39%
    15:00 +20°C° 0 mm 1 mps 733 mmHg 43%
    16:00 +19°C° 0 mm 1 mps 733 mmHg 47%
    17:00 +18°C° 0 mm 1 mps 733 mmHg 50%
    18:00 +15°C° 0 mm 1 mps 733 mmHg 53%
    19:00 +14°C° 0 mm 1 mps 733 mmHg 56%
    20:00 +13°C° 0 mm 1 mps 733 mmHg 57%
    21:00 +13°C° 0 mm 1 mps 733 mmHg 58%
    22:00 +12°C° 0 mm 1 mps 733 mmHg 59%
    23:00 +12°C° 0 mm 1 mps 733 mmHg 60%

    18 October, Thursday

    Time Temperature Precipitation Wind Pressure Humidity
    00:00 +12°C° 0 mm 1 mps 732 mmHg 60%
    01:00 +11°C° 0 mm 0 mps 732 mmHg 61%
    02:00 +10°C° 0 mm 0 mps 732 mmHg 61%
    03:00 +10°C° 0 mm 0 mps 732 mmHg 62%
    04:00 +10°C° 0 mm 0 mps 732 mmHg 63%
    05:00 +10°C° 0 mm 0 mps 732 mmHg 63%
    06:00 +10°C° 0 mm 0 mps 732 mmHg 64%
    07:00 +11°C° 0 mm 0 mps 732 mmHg 64%
    08:00 +13°C° 0 mm 0 mps 732 mmHg 58%
    09:00 +15°C° 0 mm 0 mps 732 mmHg 52%
    10:00 +18°C° 0 mm 0 mps 733 mmHg 46%
    11:00 +19°C° 0 mm 0 mps 732 mmHg 45%
    12:00 +21°C° 0 mm 1 mps 732 mmHg 43%
    13:00 +22°C° 0 mm 1 mps 732 mmHg 42%
    14:00 +21°C° 0 mm 1 mps 732 mmHg 46%
    15:00 +20°C° 0 mm 1 mps 732 mmHg 51%
    16:00 +19°C° 0 mm 1 mps 732 mmHg 56%
    17:00 +18°C° 0 mm 1 mps 732 mmHg 59%
    18:00 +14°C° 0 mm 0 mps 732 mmHg 63%
    19:00 +13°C° 0 mm 0 mps 732 mmHg 66%
    20:00 +13°C° 0 mm 0 mps 732 mmHg 68%
    21:00 +12°C° 0 mm 0 mps 732 mmHg 69%
    22:00 +13°C° 0 mm 1 mps 732 mmHg 70%
    23:00 +12°C° 0 mm 1 mps 732 mmHg 71%

    19 October, Friday

    Time Temperature Precipitation Wind Pressure Humidity
    00:00 +12°C° 0 mm 1 mps 732 mmHg 71%
    01:00 +12°C° 0 mm 1 mps 732 mmHg 72%
    02:00 +12°C° 0 mm 1 mps 732 mmHg 72%
    03:00 +11°C° 0 mm 1 mps 732 mmHg 72%
    04:00 +11°C° 0 mm 1 mps 732 mmHg 73%
    05:00 +11°C° 0 mm 1 mps 732 mmHg 72%
    06:00 +11°C° 0 mm 1 mps 732 mmHg 71%
    07:00 +11°C° 0 mm 1 mps 732 mmHg 71%
    08:00 +13°C° 0 mm 1 mps 733 mmHg 64%
    09:00 +15°C° 0 mm 2 mps 733 mmHg 58%
    10:00 +17°C° 0 mm 2 mps 733 mmHg 52%
    11:00 +18°C° 0 mm 2 mps 733 mmHg 51%
    12:00 +18°C° 0 mm 2 mps 733 mmHg 49%
    13:00 +19°C° 0 mm 2 mps 733 mmHg 48%
    14:00 +18°C° 0 mm 2 mps 733 mmHg 52%
    15:00 +17°C° 0 mm 2 mps 732 mmHg 57%
    16:00 +18°C° 0 mm 1 mps 732 mmHg 61%
    17:00 +15°C° 0 mm 1 mps 732 mmHg 66%
    18:00 +14°C° 0 mm 1 mps 733 mmHg 72%
    19:00 +13°C° 0 mm 1 mps 733 mmHg 77%
    20:00 +12°C° 0 mm 1 mps 733 mmHg 79%
    21:00 +12°C° 0 mm 1 mps 733 mmHg 82%
    22:00 +12°C° 0 mm 1 mps 733 mmHg 84%
    23:00 +11°C° 0 mm 1 mps 733 mmHg 86%

    20 October, Saturday

    Time Temperature Precipitation Wind Pressure Humidity
    00:00 +11°C° 0 mm 1 mps 733 mmHg 88%
    01:00 +11°C° 0 mm 1 mps 733 mmHg 89%
    02:00 +11°C° 0 mm 1 mps 733 mmHg 90%
    03:00 +11°C° 0 mm 1 mps 733 mmHg 91%
    04:00 +11°C° 0 mm 1 mps 733 mmHg 91%
    05:00 +11°C° 0 mm 1 mps 734 mmHg 91%
    06:00 +11°C° 0 mm 1 mps 734 mmHg 91%
    07:00 +11°C° 0 mm 1 mps 734 mmHg 91%
    08:00 +12°C° 0.1 mm 2 mps 735 mmHg 87%
    09:00 +13°C° 0.1 mm 2 mps 735 mmHg 84%
    10:00 +14°C° 0.1 mm 2 mps 735 mmHg 80%
    11:00 +13°C° 0.1 mm 3 mps 735 mmHg 77%
    12:00 +13°C° 0.1 mm 3 mps 735 mmHg 74%
    13:00 +14°C° 0.1 mm 3 mps 735 mmHg 70%
    14:00 +13°C° 0 mm 3 mps 735 mmHg 69%
    15:00 +13°C° 0 mm 3 mps 735 mmHg 68%
    16:00 +12°C° 0 mm 3 mps 735 mmHg 66%
    17:00 +12°C° 0 mm 2 mps 735 mmHg 69%
    18:00 +9°C° 0 mm 2 mps 735 mmHg 71%
    19:00 +8°C° 0 mm 2 mps 736 mmHg 73%
    20:00 +7°C° 0 mm 2 mps 736 mmHg 76%
    21:00 +6°C° 0 mm 2 mps 736 mmHg 78%
    22:00 +6°C° 0 mm 2 mps 737 mmHg 81%
    23:00 +6°C° 0 mm 2 mps 737 mmHg 82%
    Show more